User: anonymous   Login
Location: Newark
(48.5667°N, 7.8167°E)
Time: 14:03:02
(UTC+00:00)
Language:

CAS-4B - Orbit

View from above orbital plane
View from above orbital plane
View from above satellite
View from above satellite

Ground track
Ground track

The orbit data is extracted from the following two-line orbital elements,

1 42759U 17034B   20192.23408913  .00000108  00000-0  20004-4 0  9995
2 42759  43.0199 261.8912 0010323 182.0791 215.4679 15.09841887169417
Epoch (UTC): 10 July 2020 05:37:05
Eccentricity: 0.0010323
inclination: 43.0199°
perigee height: 529 km
apogee height: 544 km
right ascension of ascending node: 261.8912°
argument of perigee: 182.0791°
revolutions per day: 15.09841887
mean anomaly at epoch: 215.4679°
orbit number at epoch: 16941

The dashed part of the orbit path shows where the satellite is in the earth's shadow,  

DLR